This is the latest recevied weather packets stored in our database for station/object K0SDS. If no packets are shown the sender has not sent any weather packets the latest 1 day(s).
| Time | Temp. | Humidity | Pressure | Rain* | Wind** | Luminosity | Snow |
|---|---|---|---|---|---|---|---|
| 1778025378 | 12.78° C | 64% | 1011.6 hPa | 0 mm | 0.89 m/s, 48° | 55 W/m² | - |
| 1778025075 | 12.78° C | 68% | 1011.5 hPa | 0 mm | 0 m/s | 78 W/m² | - |
| 1778024772 | 12.78° C | 68% | 1011.4 hPa | 0 mm | 0 m/s | 74 W/m² | - |
| 1778024468 | 12.78° C | 68% | 1011.5 hPa | 0 mm | 0.45 m/s, 87° | 72 W/m² | - |
| 1778024166 | 12.78° C | 67% | 1011.3 hPa | 0 mm | 0.45 m/s, 43° | 69 W/m² | - |
| 1778023863 | 12.78° C | 70% | 1011.4 hPa | 0 mm | 0.45 m/s, 80° | 74 W/m² | - |
| 1778023561 | 12.78° C | 72% | 1011.3 hPa | 0 mm | 0.45 m/s, 54° | 84 W/m² | - |
| 1778023258 | 13.33° C | 75% | 1011.3 hPa | 0 mm | 0.45 m/s, 33° | 75 W/m² | - |
| 1778022955 | 13.33° C | 74% | 1011.3 hPa | 0 mm | 0.45 m/s, 73° | 77 W/m² | - |
| 1778022653 | 12.78° C | 76% | 1011.4 hPa | 0 mm | 0 m/s | 99 W/m² | - |
| 1778022350 | 12.78° C | 73% | 1011.2 hPa | 0 mm | 0.89 m/s, 119° | 77 W/m² | - |
| 1778022041 | 13.33° C | 75% | 1011.5 hPa | 0 mm | 0 m/s | 58 W/m² | - |
| 1778021738 | 13.33° C | 75% | 1011.5 hPa | 0 mm | 0 m/s | 88 W/m² | - |
| 1778021434 | 13.33° C | 77% | 1011.4 hPa | 0 mm | 0 m/s | 96 W/m² | - |
| 1778021131 | 12.78° C | 77% | 1011.5 hPa | 0 mm | 0.45 m/s, 116° | 91 W/m² | - |
| 1778020828 | 13.33° C | 75% | 1011.1 hPa | 0 mm | 0.45 m/s, 66° | 95 W/m² | - |
| 1778020525 | 13.33° C | 74% | 1011.1 hPa | 0 mm | 0.89 m/s, 151° | 102 W/m² | - |
| 1778020221 | 13.33° C | 75% | 1011 hPa | 0 mm | 0 m/s | 142 W/m² | - |
| 1778019918 | 13.33° C | 76% | 1011 hPa | 0 mm | 0.89 m/s, 61° | 169 W/m² | - |
| 1778019614 | 12.78° C | 76% | 1011.1 hPa | 0 mm | 0.45 m/s, 83° | 162 W/m² | - |
| 1778019311 | 12.78° C | 77% | 1011 hPa | 0 mm | 0.45 m/s, 41° | 114 W/m² | - |
| 1778019008 | 12.78° C | 77% | 1011 hPa | 0 mm | 0 m/s | 98 W/m² | - |
| 1778018705 | 12.78° C | 78% | 1011.3 hPa | 0 mm | 0.45 m/s, 56° | 110 W/m² | - |
| 1778018403 | 12.78° C | 77% | 1011.4 hPa | 0 mm | 0 m/s | 97 W/m² | - |
| 1778018100 | 12.78° C | 76% | 1011.2 hPa | 0 mm | 0 m/s | 113 W/m² | - |
* Rain latest hour (hover to see other rain measurements)
** Current wind speed in m/s (hover to see current wind gust speed)